EW8655 Weather Reports


Display with metric or nautical units.
time (UTC)temp
F
wind
direction
speed
MPH
gust
MPH
rain 1hr
in
rain 24hr
in
rain mn
in
humidity
%
barometer
mb
20260901182007 74 62 2.0 5.0 0.00 0.00 0.00 91 1012.1
20260901181506 74 37 2.0 5.0 0.00 0.00 0.00 92 1012.1
20260901181006 74 45 2.0 5.0 0.00 0.00 0.00 92 1012.1
20260901180506 74 54 2.0 5.0 0.00 0.00 0.00 92 1012.1
20260901180006 74 46 2.0 5.0 0.00 0.00 0.00 92 1012.1
20260901175506 74 43 2.0 5.0 0.00 0.00 0.00 92 1011.8
20260901175006 74 45 2.0 5.0 0.00 0.00 0.00 92 1011.3
20260901174506 74 58 2.0 5.0 0.00 0.00 0.00 92 1011.6
20260901174008 74 52 2.0 5.0 0.00 0.00 0.00 92 1011.1
20260901173507 74 47 3.0 5.0 0.00 0.00 0.00 92 1011.1
20260901173007 74 45 5.0 5.0 0.00 0.00 0.00 92 1011.1
20260901172506 74 41 5.0 5.0 0.00 0.00 0.00 92 1011.1
20260901172007 74 52 2.0 5.0 0.00 0.00 0.00 92 1011.1
20260901171006 74 57 2.0 5.0 0.00 0.00 0.00 92 1010.6
20260901170506 74 50 5.0 5.0 0.00 0.00 0.00 93 1011.1
20260901170006 74 46 2.0 5.0 0.00 0.00 0.00 93 1011.1
20260901165006 74 61 2.0 5.0 0.00 0.00 0.00 94 1010.8
20260901164506 74 36 2.0 5.0 0.00 0.00 0.00 94 1010.6
20260901164006 73 16 3.0 9.0 0.00 0.00 0.00 95 1011.1
20260901163506 73 21 5.0 12.0 0.00 0.00 0.00 95 1011.1
20260901163006 73 23 9.0 12.0 0.00 0.00 0.00 94 1011.1
20260901162505 73 13 9.0 14.0 0.00 0.00 0.00 94 1010.4
20260901162006 73 23 9.0 14.0 0.00 0.00 0.00 94 1010.1
20260901161506 73 20 7.0 14.0 0.00 0.00 0.00 94 1010.1
20260901161007 73 18 9.0 16.0 0.00 0.00 0.00 94 1010.1
20260901160506 73 37 9.0 16.0 0.00 0.00 0.00 93 1010.1
20260901155505 73 0 9.0 16.0 0.00 0.00 0.00 93 1010.1
20260901155006 73 4 9.0 16.0 0.00 0.00 0.00 92 1010.1
20260901154007 74 355 3.0 12.0 0.00 0.00 0.00 91 1010.1
20260901153507 75 347 4.0 7.0 0.00 0.00 0.00 91 1010.1
20260901153007 74 4 2.0 7.0 0.00 0.00 0.00 91 1010.1
20260901152505 74 12 2.0 7.0 0.00 0.00 0.00 90 1010.1
20260901152007 74 330 2.0 9.0 0.00 0.00 0.00 89 1010.1
20260901151505 74 348 6.0 9.0 0.00 0.00 0.00 89 1010.1
20260901151006 74 357 5.0 9.0 0.00 0.00 0.00 87 1010.1
20260901150006 76 352 2.0 7.0 0.00 0.00 0.00 86 1010.1
20260901145006 77 344 2.0 5.0 0.00 0.00 0.00 85 1010.1
20260901144506 78 299 2.0 7.0 0.00 0.00 0.00 86 1010.1
20260901144006 77 341 3.0 9.0 0.00 0.00 0.00 87 1010.1
20260901143506 77 293 7.0 9.0 0.00 0.00 0.00 87 1010.1
20260901143006 77 288 5.0 9.0 0.00 0.00 0.00 87 1010.1
20260901142505 77 264 5.0 9.0 0.00 0.00 0.00 88 1010.1
20260901142006 77 298 0.0 5.0 0.00 0.00 0.00 89 1010.1
20260901141506 77 318 1.0 5.0 0.00 0.00 0.00 89 1010.1
20260901140505 77 265 2.0 7.0 0.00 0.00 0.00 91 1010.1
20260901140006 76 271 5.0 9.0 0.00 0.00 0.00 92 1010.1
20260901135505 75 277 6.0 9.0 0.00 0.00 0.00 92 1010.1
20260901135006 75 260 7.0 9.0 0.00 0.00 0.00 93 1010.1
20260901134506 75 252 7.0 9.0 0.00 0.00 0.00 93 1010.1
20260901134007 75 265 7.0 9.0 0.00 0.00 0.00 93 1010.1
20260901133506 75 253 7.0 9.0 0.00 0.00 0.00 94 1010.1
20260901133007 75 260 7.0 9.0 0.00 0.00 0.00 95 1010.1
20260901132505 74 256 7.0 9.0 0.00 0.00 0.00 95 1010.1
20260901132006 74 250 7.0 9.0 0.00 0.00 0.00 96 1010.1
20260901131506 74 243 7.0 9.0 0.00 0.00 0.00 97 1010.1
20260901131006 74 237 7.0 7.0 0.00 0.00 0.00 97 1010.1
20260901130506 73 230 7.0 7.0 0.00 0.00 0.00 99 1010.1
20260901125505 73 245 5.0 5.0 0.00 0.00 0.00 99 1010.1
20260901125006 73 225 5.0 7.0 0.00 0.00 0.00 99 1010.1
20260901124506 73 213 5.0 7.0 0.00 0.00 0.00 100 1010.1
20260901124007 72 204 5.0 7.0 0.00 0.00 0.00 100 1010.1
20260901123006 72 242 5.0 5.0 0.00 0.00 0.00 100 1010.1
20260901122506 72 229 5.0 5.0 0.00 0.00 0.00 100 1010.1
20260901122007 71 222 2.0 5.0 0.00 0.00 0.00 100 1010.1
20260901121506 71 214 5.0 7.0 0.00 0.00 0.00 100 1010.1
20260901121006 71 197 5.0 7.0 0.00 0.00 0.00 100 1010.1
20260901120507 71 197 2.0 5.0 0.00 0.00 0.00 100 1010.1
20260901120006 71 203 2.0 5.0 0.00 0.00 0.00 100 1010.1
20260901115506 71 189 2.0 5.0 0.00 0.00 0.00 100 1010.1
20260901115006 71 171 2.0 5.0 0.00 0.00 0.00 100 1010.1
20260901114506 71 178 0.0 5.0 0.00 0.00 0.00 100 1010.1
20260901114007 71 170 2.0 5.0 0.00 0.00 0.00 100 1010.1
20260901113506 71 196 0.0 5.0 0.00 0.00 0.00 100 1010.1
20260901113007 71 166 2.0 5.0 0.00 0.00 0.00 100 1010.1
20260901112505 71 182 2.0 5.0 0.00 0.00 0.00 100 1010.1
20260901112007 71 189 0.0 2.0 0.00 0.00 0.00 100 1010.1
20260901111506 71 214 2.0 2.0 0.00 0.00 0.00 100 1010.1
20260901111006 71 216 0.0 2.0 0.00 0.00 0.00 100 1010.1
20260901110506 71 216 0.0 0.0 0.00 0.00 0.00 100 1010.1
20260901110005 71 215 0.0 0.0 0.00 0.00 0.00 100 1010.1
20260901105505 71 213 0.0 0.0 0.00 0.00 0.00 100 1010.1
20260901105006 71 186 0.0 0.0 0.00 0.00 0.00 100 1010.1
20260901104505 71 116 0.0 0.0 0.00 0.00 0.00 100 1010.1
20260901104006 71 115 0.0 0.0 0.00 0.00 0.00 100 1010.1
20260901103506 71 115 0.0 0.0 0.00 0.00 0.00 100 1010.1
20260901103006 71 109 0.0 0.0 0.00 0.00 0.00 100 1010.1
20260901102505 71 111 0.0 0.0 0.00 0.00 0.00 100 1010.1
20260901102006 71 117 0.0 0.0 0.00 0.00 0.00 100 1010.1
20260901101506 71 118 0.0 0.0 0.00 0.00 0.00 100 1010.1
20260901100505 71 128 0.0 5.0 0.00 0.00 0.00 100 1010.1
20260901100005 71 115 0.0 5.0 0.00 0.00 0.00 100 1010.1
20260901094006 71 96 2.0 5.0 0.00 0.00 0.00 100 1010.1
20260901093506 70 96 2.0 5.0 0.00 0.00 0.00 100 1010.1
20260901093007 70 97 1.0 2.0 0.00 0.00 0.00 100 1010.1
20260901092008 70 58 0.0 0.0 0.00 0.00 0.00 100 1010.1
20260901091507 70 4 0.0 0.0 0.00 0.00 0.00 100 1010.1
20260901090507 70 50 0.0 0.0 0.00 0.00 0.00 100 1010.1
20260901090007 70 76 0.0 0.0 0.00 0.00 0.00 100 1010.1
20260901085507 70 124 0.0 0.0 0.00 0.00 0.00 100 1010.1
20260901085008 70 111 0.0 0.0 0.00 0.00 0.00 100 1010.1
20260901084507 70 111 0.0 0.0 0.00 0.00 0.00 100 1010.1
20260901084008 70 111 0.0 0.0 0.00 0.00 0.00 100 1010.1
20260901083507 70 124 0.0 0.0 0.00 0.00 0.00 100 1010.1
20260901083008 70 58 0.0 5.0 0.00 0.00 0.00 100 1010.1
20260901082507 71 168 0.0 5.0 0.00 0.00 0.00 100 1010.1
20260901082008 71 191 1.0 5.0 0.00 0.00 0.00 100 1010.1
20260901081507 70 172 0.0 2.0 0.00 0.00 0.00 100 1010.1
20260901081008 70 161 0.0 5.0 0.00 0.00 0.00 100 1010.1
20260901080007 70 176 0.0 5.0 0.00 0.00 0.00 100 1010.1
20260901075008 70 181 2.0 5.0 0.00 0.00 0.00 100 1010.1
20260901074508 70 175 2.0 5.0 0.00 0.00 0.00 100 1010.1
20260901074008 70 169 2.0 5.0 0.00 0.00 0.00 100 1010.1
20260901073508 70 194 2.0 5.0 0.00 0.00 0.00 100 1010.1
20260901073008 70 189 4.0 7.0 0.00 0.00 0.00 100 1010.1
20260901072507 70 183 5.0 7.0 0.00 0.00 0.00 100 1010.1
20260901071008 70 174 1.0 5.0 0.00 0.00 0.00 100 1010.1
20260901070508 70 169 0.0 2.0 0.00 0.00 0.00 100 1010.1
20260901065507 70 168 0.0 2.0 0.00 0.00 0.00 100 1011.1
20260901065007 70 179 0.0 0.0 0.00 0.00 0.00 100 1011.1
20260901064507 70 158 0.0 0.0 0.00 0.00 0.00 100 1012.1
20260901064008 70 167 0.0 0.0 0.00 0.00 0.00 100 1011.8
20260901063508 70 153 0.0 0.0 0.00 0.00 0.00 100 1012.1
20260901063008 70 197 0.0 0.0 0.00 0.00 0.00 100 1012.1
20260901062507 70 198 0.0 0.0 0.00 0.00 0.00 100 1012.1
20260901062007 70 197 0.0 0.0 0.00 0.00 0.00 100 1012.1
20260901061507 70 197 0.0 0.0 0.00 0.00 0.00 100 1012.1
20260901061007 70 197 0.0 0.0 0.00 0.00 0.00 100 1012.1
20260901060507 70 188 0.0 0.0 0.00 0.00 0.00 100 1012.1
20260901060007 70 127 0.0 0.0 0.00 0.00 0.00 100 1012.1
20260901055506 70 123 0.0 0.0 0.00 0.00 0.00 100 1012.1
20260901055007 70 124 0.0 2.0 0.00 0.00 0.00 100 1012.1
20260901054506 69 112 0.0 2.0 0.00 0.00 0.00 100 1012.1
20260901054008 70 114 0.0 2.0 0.00 0.00 0.00 100 1012.1
20260901053507 70 112 0.0 2.0 0.00 0.00 0.00 100 1012.1
20260901053008 70 117 0.0 0.0 0.00 0.00 0.00 100 1012.1
20260901051507 70 196 0.0 2.0 0.00 0.00 0.00 100 1012.1
20260901051009 70 206 1.0 2.0 0.00 0.00 0.00 100 1012.1
20260901050507 70 209 2.0 2.0 0.00 0.00 0.00 100 1012.6
20260901050007 69 163 0.0 0.0 0.00 0.00 0.00 100 1012.1
20260901045507 69 179 0.0 0.0 0.00 0.00 0.00 100 1012.1
20260901045008 69 176 0.0 0.0 0.00 0.00 0.00 100 1012.1
20260901044507 69 140 0.0 0.0 0.00 0.00 0.00 100 1013.1
20260901044008 69 140 0.0 0.0 0.00 0.00 0.00 100 1013.1
20260901043508 69 140 0.0 0.0 0.00 0.00 0.00 100 1013.1
20260901043007 69 140 0.0 0.0 0.00 0.00 0.00 100 1012.4
20260901042507 69 140 0.0 0.0 0.00 0.00 0.00 100 1012.8
20260901042008 69 147 0.0 0.0 0.00 0.00 0.00 100 1012.1
20260901041506 69 140 0.0 0.0 0.00 0.00 0.00 100 1013.1
20260901041020 69 131 0.0 0.0 0.00 0.00 0.00 100 1013.1
20260901040507 69 131 0.0 0.0 0.00 0.00 0.00 100 1013.1
20260901040006 69 124 0.0 0.0 0.00 0.00 0.00 100 1013.1
20260901034507 69 119 0.0 0.0 0.00 0.00 0.00 100 1013.1
20260901034007 69 114 0.0 0.0 0.00 0.00 0.00 100 1013.1
20260901033508 69 132 0.0 0.0 0.00 0.00 0.00 100 1013.1
20260901033007 69 127 0.0 0.0 0.00 0.00 0.00 100 1013.1
20260901032507 69 122 0.0 0.0 0.00 0.00 0.00 100 1013.1
20260901032007 69 107 0.0 0.0 0.00 0.00 0.00 100 1013.1
20260901031507 69 107 0.0 0.0 0.00 0.00 0.00 100 1013.1
20260901031008 69 107 0.0 0.0 0.00 0.00 0.00 100 1013.1
20260901030507 69 92 0.0 0.0 0.00 0.00 0.00 100 1013.1
20260901030007 69 92 0.0 0.0 0.00 0.00 0.00 100 1013.1
20260901025506 69 106 0.0 0.0 0.00 0.00 0.00 100 1013.1
20260901025007 69 123 0.0 0.0 0.00 0.00 0.00 100 1013.1
20260901024506 69 113 0.0 0.0 0.00 0.00 0.00 100 1013.1
20260901023507 70 187 0.0 2.0 0.00 0.00 0.00 100 1013.1
20260901023007 69 196 0.0 2.0 0.00 0.00 0.00 100 1013.1
20260901022506 69 180 0.0 2.0 0.00 0.00 0.00 100 1013.1
20260901022007 69 173 0.0 0.0 0.00 0.00 0.00 100 1013.1
20260901021007 69 175 0.0 0.0 0.00 0.00 0.00 100 1013.1
20260901020507 69 170 0.0 0.0 0.00 0.00 0.00 100 1013.1
20260901020007 69 167 0.0 2.0 0.00 0.00 0.00 100 1013.1
20260901014007 69 172 0.0 0.0 0.00 0.00 0.00 100 1013.1
20260901013507 69 160 0.0 0.0 0.00 0.00 0.00 100 1013.1
20260901013007 69 150 0.0 0.0 0.00 0.00 0.00 100 1013.1
20260901012507 69 176 0.0 0.0 0.00 0.00 0.00 100 1013.1
20260901012007 69 147 0.0 0.0 0.00 0.00 0.00 100 1013.1
20260901011506 69 117 0.0 0.0 0.00 0.00 0.00 100 1013.1
20260901011008 69 122 0.0 0.0 0.00 0.00 0.00 100 1013.1
20260901010508 69 133 0.0 2.0 0.00 0.00 0.00 100 1013.1
20260901010007 69 129 0.0 2.0 0.00 0.00 0.00 100 1013.1
20260901005507 69 107 0.0 0.0 0.00 0.00 0.00 100 1013.1
20260901005008 69 119 0.0 0.0 0.00 0.00 0.00 100 1013.1
20260901004507 69 123 0.0 0.0 0.00 0.00 0.00 100 1013.1
20260901003507 69 118 0.0 0.0 0.00 0.00 0.00 100 1013.1
20260901003007 69 134 0.0 0.0 0.00 0.00 0.00 100 1013.1
20260901002506 69 137 0.0 0.0 0.00 0.00 0.00 100 1013.1
20260901002007 69 117 0.0 2.0 0.00 0.00 0.00 100 1013.1
20260901001507 69 111 0.0 2.0 0.00 0.00 0.00 100 1013.1
20260901001007 69 115 0.0 2.0 0.00 0.00 0.00 100 1013.1
20260901000507 69 110 0.0 2.0 0.00 0.00 0.00 100 1013.1
20260901000006 69 132 0.0 0.0 0.00 0.00 0.00 100 1013.1
20260831235506 69 136 0.0 0.0 0.00 0.00 0.00 100 1013.1
20260831235007 69 135 0.0 0.0 0.00 0.00 0.00 100 1013.1
20260831234506 69 133 0.0 0.0 0.00 0.00 0.00 100 1013.1
20260831234007 69 133 0.0 0.0 0.00 0.00 0.00 100 1013.1
20260831233507 69 133 0.0 0.0 0.00 0.00 0.00 100 1013.1
20260831233007 69 134 0.0 0.0 0.00 0.00 0.00 100 1013.1
20260831232506 69 144 0.0 0.0 0.00 0.00 0.00 100 1013.1
20260831232006 69 147 0.0 0.0 0.00 0.00 0.00 100 1013.1
20260831231506 69 148 0.0 0.0 0.00 0.00 0.00 100 1013.1
20260831231007 69 148 0.0 0.0 0.00 0.00 0.00 100 1013.1
20260831230507 69 150 0.0 0.0 0.00 0.00 0.00 99 1013.1
20260831230007 69 142 0.0 0.0 0.00 0.00 0.00 100 1013.1
20260831225007 69 141 0.0 0.0 0.00 0.00 0.00 99 1013.1
20260831224507 69 140 0.0 0.0 0.00 0.00 0.00 99 1013.1
20260831224007 69 141 0.0 0.0 0.00 0.00 0.00 99 1013.1
20260831223507 69 141 0.0 0.0 0.00 0.00 0.00 99 1013.2
20260831223007 69 140 0.0 0.0 0.00 0.00 0.00 99 1013.5
20260831222007 69 135 0.0 0.0 0.00 0.00 0.00 99 1013.6
20260831221506 69 119 0.0 0.0 0.00 0.00 0.00 99 1013.1
20260831221007 69 125 0.0 0.0 0.00 0.00 0.00 99 1013.5
20260831220507 69 130 0.0 0.0 0.00 0.00 0.00 99 1013.1
20260831220007 69 126 0.0 0.0 0.00 0.00 0.00 99 1013.1
20260831215506 69 131 0.0 0.0 0.00 0.00 0.00 99 1013.1
20260831215007 69 129 0.0 0.0 0.00 0.00 0.00 99 1013.1
20260831214507 69 113 0.0 0.0 0.00 0.00 0.00 99 1013.1
20260831213506 69 110 0.0 0.0 0.00 0.00 0.00 99 1014.1
20260831213007 69 119 0.0 0.0 0.00 0.00 0.00 99 1014.1
20260831212007 69 150 0.0 0.0 0.00 0.00 0.00 99 1013.6
20260831211007 69 133 0.0 0.0 0.00 0.00 0.00 99 1014.1
20260831210506 69 122 0.0 5.0 0.00 0.00 0.00 99 1014.1
20260831210006 69 122 1.0 5.0 0.00 0.00 0.00 99 1014.1
20260831205507 69 104 5.0 5.0 0.00 0.00 0.00 99 1014.1
20260831205007 69 84 5.0 5.0 0.00 0.00 0.00 99 1014.1
20260831204506 69 86 5.0 5.0 0.00 0.00 0.00 99 1014.1
20260831204006 69 82 5.0 5.0 0.00 0.00 0.00 99 1014.1
20260831203506 69 84 5.0 5.0 0.00 0.00 0.00 99 1014.1
20260831202506 69 145 0.0 0.0 0.00 0.00 0.00 99 1013.3
20260831201506 69 146 0.0 0.0 0.00 0.00 0.00 99 1013.1
20260831201007 69 130 0.0 0.0 0.00 0.00 0.00 99 1014.1
20260831195506 69 175 1.0 5.0 0.00 0.00 0.00 98 1014.1
20260831195007 69 154 4.0 7.0 0.00 0.00 0.00 98 1014.1
20260831194506 69 177 3.0 7.0 0.00 0.00 0.00 98 1014.1
20260831194007 69 196 4.0 7.0 0.00 0.00 0.00 98 1014.1
20260831193507 69 187 5.0 5.0 0.00 0.00 0.00 98 1014.1
20260831192506 69 191 5.0 5.0 0.00 0.00 0.00 98 1014.1
20260831192006 69 194 5.0 5.0 0.00 0.00 0.00 97 1014.1
20260831191007 69 213 5.0 7.0 0.00 0.00 0.00 97 1014.1
20260831190507 69 209 5.0 7.0 0.00 0.00 0.00 97 1014.1
20260831190006 69 199 5.0 7.0 0.00 0.00 0.00 97 1014.1
20260831185007 69 210 5.0 5.0 0.00 0.00 0.00 97 1014.6
20260831184007 69 208 2.0 5.0 0.00 0.00 0.00 97 1014.6
20260831183006 69 179 1.0 5.0 0.00 0.00 0.00 97 1014.6